• Join FlightAware (Why Join?)
  • Login
  • US Flag 
06:55AM EDT


 

Airport Tracker/Info


-or-


 

Live Flight TrackerFlight Track Log ✈ DAL4888 ✈ 23-Apr-2013 ✈ KATL - KTRI

Flight Track Log - Related Links

Times and Time Zones

All times are in EDT time to prevent confusion due to time zone crossing. See the DAL4888 flight status page for this flight to view local times or setup timezone preferences in your user account.

Time Position Orientation Groundspeed Altitude Reporting Facility
EDT Latitude Longitude Course Direction KTS MPH feet Rate Location/Type
08:50PM 33.6500 -84.3833 73° East 173 199 2,900  Level Atlanta TRACON
08:51PM 33.6667 -84.3167 73° East 254 292 4,300 2,100 Climbing Atlanta TRACON
08:52PM 33.6833 -84.2167 79° East 287 330 6,900 1,680 Climbing Atlanta TRACON
08:54PM 33.8506 -84.1864 North 311 358 10,000 1,440 Climbing Atlanta Center
08:55PM 33.9278 -84.2592 322° Northwest 324 373 11,700 2,100 Climbing Atlanta Center
08:56PM 34.0258 -84.2744 353° North 332 382 14,300 2,460 Climbing Atlanta Center
08:57PM 34.1133 -84.2797 357° North 332 382 16,700 1,980 Climbing Atlanta Center
08:58PM 34.2178 -84.2547 11° North 344 396 18,300 1,200 Climbing Atlanta Center
08:59PM 34.3075 -84.1872 32° Northeast 344 396 19,100 780 Climbing Atlanta Center
09:00PM 34.3994 -84.1144 33° Northeast 383 441 19,900 900 Climbing Atlanta Center
09:01PM 34.4975 -84.0414 32° Northeast 397 457 21,000 1,020 Climbing Atlanta Center
09:02PM 34.5936 -83.9706 31° Northeast 403 464 22,000 900 Climbing Atlanta Center
09:03PM 34.6811 -83.9075 31° Northeast 411 473 22,900 480 Climbing Atlanta Center
09:04PM 34.7939 -83.8211 32° Northeast 418 481 23,000  Climbing Atlanta Center
09:05PM 34.9000 -83.7375 33° Northeast 435 501 23,000  Level Atlanta Center
09:06PM 34.9978 -83.6661 31° Northeast 440 506 23,000  Level Atlanta Center
09:07PM 35.1061 -83.5817 33° Northeast 451 519 23,000  Level Atlanta Center
09:08PM 35.2142 -83.4997 32° Northeast 451 519 23,000  Level Atlanta Center
09:09PM 35.3203 -83.4178 32° Northeast 451 519 23,000  Level Atlanta Center
09:10PM 35.4264 -83.3378 32° Northeast 451 519 23,000 -300 Level Atlanta Center
09:11PM 35.5300 -83.2578 32° Northeast 451 519 22,500 -1,500 Descending Atlanta Center
09:12PM 35.6464 -83.1622 34° Northeast 451 519 20,000 -2,400 Descending Atlanta Center
09:13PM 35.7436 -83.0742 36° Northeast 435 501 17,800 -2,280 Descending Atlanta Center
09:14PM 35.8328 -82.9964 35° Northeast 408 470 15,500 -2,340 Descending Atlanta Center
09:15PM 35.9175 -82.9183 37° Northeast 393 452 13,200 -2,280 Descending Atlanta Center
09:16PM 36.0064 -82.8375 36° Northeast 387 445 11,000 -1,320 Descending Atlanta Center
09:17PM 36.0911 -82.7592 37° Northeast 382 440 10,600 -720 Descending Atlanta Center
09:18PM 36.1636 -82.6936 36° Northeast 346 398 9,600 -1,440 Descending Atlanta Center
09:19PM 36.2275 -82.6231 42° Northeast 305 351 7,800 -1,860 Descending Atlanta Center
09:20PM 36.2914 -82.5603 38° Northeast 294 338 5,900 -1,920 Descending Atlanta Center
09:21PM 36.3553 -82.5022 36° Northeast 283 326 4,000 -960 Descending Atlanta Center
09:22PM 36.4131 -82.4469 38° Northeast 267 307 4,000  Level Atlanta Center
09:23PM 36.4603 -82.3994 39° Northeast 231 266 4,000 -120 Level Atlanta Center
09:24PM 36.4972 -82.3497 47° Northeast 198 228 3,800 -240 Descending Atlanta Center
09:26PM 36.4667 -82.4000 253° West  Level FlightAware Approximate
09:33PM 36.4752 -82.4074 253° West  Level Estimated
09:34PM 36.4752 -82.4074 253° West  Level Estimated
09:35PM 36.4752 -82.4074 253° West  Level Estimated
09:36PM 36.4752 -82.4074 253° West  Level Estimated
09:37PM 36.4752 -82.4074 253° West  Level Estimated